IRIDIUM 33 DEB, 39781

Orbit data source: Space-Track

IRIDIUM 33 DEB, 39781 is space debris in LEO originally from a launch on Sun, 14 Sep 1997 UTC launched from the Tyuratam Missile And Space Complex (TTMTR). The debris from Iridium 33, an American commercial communications satellite, has been tracked extensively since its accidental collision with the defunct Russian satellite Cosmos 2251 in 2009. This event, occurring at high speed in low Earth orbit (LEO), generated thousands of pieces of space debris, significantly increasing the risk of further collisions. The Iridium 33 debris cloud has impacted space traffic management and orbital debris mitigation strategies, making it a subject of ongoing study in space situational awareness.

Loading next visibility...
Identifier
39781, 1997-051AAN
Orbit
LEO
Country
Flag of USUS
Related business
Manufacturer
Unknown
Mission
Spacecraft
Bus & Motor
Unknown
Mass
Unknown
Launch date (UTC)
1997-09-14 (28 years ago)
Launch vehicle
Unknown
Launch site
Tyuratam Missile And Space Complex (TTMTR)
Object type
Payload
Rocket body
Debris
Shape & HBR
Unknown shape, 0.1 m
Radar Cross Section
Small (<0.1 m²)

Expand to show TLE details & history
Last TLE update: 9 hours ago

TLE from 9 hours ago
0 IRIDIUM 33 DEB
1 39781U 97051AAN 25343.54844417  .00020802  00000-0  82391-2 0  9991
2 39781  86.3699 259.2946 0178151 283.4405 255.4968 14.20481305 80619
Epoch: 2025-12-09T13:09Z
TLE epoch observation values (Epoch: 2025-12-09T13:09:45.576Z)
Latitude
2.92131°
Longitude
163.13864°
Altitude
860.691 km
Speed
7.405 km/s
True Right ascension
05h 16m 26s
True Declination
2° 54' 15"
Sunlit
Object was in full shadow at epoch
Visualization orbit readout
Latitude
Unknown
Longitude
Unknown
Altitude
Unknown
Speed
Unknown
Apparent Right ascension
Unknown
Apparent Declination
Unknown
Sunlit
N/A
Visualization observer readout
Local Sidereal Time
19:55:58
Azimuth
Unknown
Elevation
Unknown
Doppler factor
Unknown
Orbital elements
Apogee altitude
948.957 km
Perigee altitude
692.46 km
Semi-major axis
7,198.846 km
Eccentricity
0.01782
Inclination
86.3699°
RAAN
259.2946°
Arg. of periapsis
283.4405°
True anomaly
253.53174°
Mean anomaly
255.4968°
Eccentric anomaly
254.51313°
Mean motion
3.55344 °/min
Orbital period
101.31 mins
BSTAR
0.0082391
Loading maneuver chart data...
Computing Atmospheric mass density...

Documentation

Showing up to 5 results
|